Location: Powder Track
(41.8531°N, 72.3584°W)
Time: 21:15:12
(UTC+00:00)

FENGYUN 1C DEB - Visible Passes

Search period start: 01 December 2021 00:00
Search period end: 11 December 2021 00:00
Orbit: 845 x 885 km, 98.9° (Epoch: 01 December)

Date Brightness Start Highest point End Pass type
(mag) Time Alt. Az. Time Alt. Az. Time Alt. Az.
01 Dec ? 01:19:31 16° WNW 01:19:31 16° WNW 01:21:59 10° NW visible
01 Dec ? 23:29:33 56° ENE 23:29:33 56° ENE 23:34:52 10° N visible
02 Dec ? 01:11:52 19° WNW 01:11:52 19° WNW 01:14:45 10° NW visible
02 Dec ? 23:21:55 48° ENE 23:21:55 48° ENE 23:27:11 10° N visible
03 Dec ? 01:04:13 22° WNW 01:04:13 22° WNW 01:07:25 10° NW visible
03 Dec ? 23:14:14 41° ENE 23:14:21 41° ENE 23:19:29 10° N visible
04 Dec ? 00:56:34 25° WNW 00:56:34 25° WNW 01:00:03 10° NW visible
04 Dec ? 23:06:34 36° ENE 23:06:48 36° ENE 23:11:45 10° N visible
05 Dec ? 00:48:53 29° WNW 00:48:53 29° WNW 00:52:37 10° NW visible
05 Dec ? 11:26:29 10° NE 11:29:42 15° E 11:32:53 10° SE visible
05 Dec ? 22:58:53 31° ENE 22:59:15 31° ENE 23:04:00 10° N visible
06 Dec ? 00:41:11 33° WNW 00:41:11 33° WNW 00:45:09 10° NNW visible
06 Dec ? 11:19:29 10° ENE 11:21:59 13° E 11:24:28 10° ESE visible
06 Dec ? 22:51:11 27° ENE 22:51:42 27° ENE 22:56:14 10° N visible
07 Dec ? 00:33:29 38° WNW 00:33:29 38° WNW 00:37:39 10° NNW visible
07 Dec ? 11:12:55 10° ENE 11:14:15 11° E 11:15:37 10° ESE visible
07 Dec ? 22:43:27 23° ENE 22:44:10 24° ENE 22:48:26 10° NNE visible
08 Dec ? 00:25:46 44° WNW 00:25:46 44° WNW 00:30:08 10° NNW visible
08 Dec ? 22:35:43 20° ENE 22:36:39 21° ENE 22:40:36 10° NNE visible
09 Dec ? 00:18:01 51° WNW 00:18:01 51° WNW 00:22:35 10° NNW visible
09 Dec ? 22:27:57 17° ENE 22:29:07 18° ENE 22:32:42 10° NNE visible
10 Dec ? 00:10:15 60° WNW 00:10:15 60° WNW 00:15:01 10° NNW visible
10 Dec ? 22:20:10 14° ENE 22:21:37 16° ENE 22:24:46 10° NNE visible
